{"data":{"norad_id":64510,"epoch":"2026-09-21T14:13:01.534368Z","epoch_age_seconds":87363,"freshness":"FRESH","line1":"1 64510U 25134L   26264.59237887  .00001933  00000+0  28257-3 0  9992","line2":"2 64510  51.9002  64.2724 0000581 121.0230 239.0789 14.79928733 69403","mean_motion":14.79928733,"eccentricity":5.81e-5,"inclination_deg":51.9002,"raan_deg":64.2724,"arg_perigee_deg":121.023,"mean_anomaly_deg":239.0789,"bstar":0.00028257,"rev_number":6940,"period_min":97.301982716488,"perigee_km":629.14195250664,"apogee_km":629.95624563135,"semimajor_km":7007.686099069,"source":"CELESTRAK","updated_at":"2026-09-22T09:00:29.808923Z"}}